Volver al catálogo

STARLINK-35643

ActivoComunicacionesVLEO
NORAD 66456·PAYLOAD·🇺🇸 United States

Lanzado Nov 15, 2025 desde Cape Canaveral Space Force Station

Loading…

Próximos Pases (próximas 24 horas)

TLE

ActualizadoSource: CelesTrak SupGP

Época: Sep 15, 2026, 03:30 UTC

1 66456C 25262A   26258.14631944  .00018706  00000+0  67741-3 0  2586
2 66456  43.0025 306.5471 0001365 260.3166 242.8531 15.27575549    14

Sigue STARLINK-35643 en tiempo real con AllMySat

Download on the App Store